Tracking 28052 objects as of 21-Sep-2023
HD Live streaming from Space Station
objects crossing your sky now

STARLINK-5400

Track STARLINK-5400 now!
10-day predictions
STARLINK-5400 is classified as:


NORAD ID: 54861
Int'l Code: 2022-177AT
Perigee: 565.7 km
Apogee: 566.7 km
Inclination: 43.0 °
Period: 95.8 minutes
Semi major axis: 6937 km
RCS: Unknown
Launch date: December 28, 2022
Source: United States (US)
Launch site: AIR FORCE EASTERN TEST RANGE (AFETR)
Your satellite tracking list
Your tracking list is empty




NASA's NSSDC Master Catalog

Two Line Element Set (TLE):
1 54861U 22177AT  23264.24181818 -.00001827  00000-0 -12023-3 0  9994
2 54861  43.0034 333.1823 0000745 267.8613  92.2144 15.02534733 40674
Source of the keplerian elements: AFSPC